Radiation Dose at Monitoring Post of Fukushima Daini Nuclear Power Station
Date,Time,MP-1(microSv/h),MP-2(microSv/h),MP-3(microSv/h),MP-4(microSv/h),MP-5(microSv/h),MP-6(microSv/h),MP-7(microSv/h),Wind Direction,Wind Velocity(m/s),Rain
2016/05/04,00:00,0.447,0.262,0.471,0.414,0.393,0.211,0.183,south-southwest,14.7,No
2016/05/04,00:10,0.452,0.261,0.474,0.418,0.392,0.212,0.184,south-southwest,14.9,No
2016/05/04,00:20,0.448,0.263,0.469,0.414,0.391,0.211,0.183,south-southwest,15.7,No
2016/05/04,00:30,0.450,0.260,0.473,0.418,0.393,0.212,0.184,south-southwest,16.5,No
2016/05/04,00:40,0.450,0.261,0.468,0.414,0.389,0.210,0.183,south-southwest,15.8,No
2016/05/04,00:50,0.447,0.260,0.473,0.418,0.393,0.212,0.184,south-southwest,11.7,No
2016/05/04,01:00,0.451,0.262,0.473,0.415,0.389,0.212,0.183,south,13.9,No
2016/05/04,01:10,0.447,0.260,0.472,0.416,0.392,0.210,0.184,south-southwest,14.9,No
2016/05/04,01:20,0.452,0.261,0.470,0.415,0.388,0.212,0.184,south,15.2,No
2016/05/04,01:30,0.446,0.260,0.471,0.415,0.394,0.211,0.183,south,14.6,Yes
2016/05/04,01:40,0.451,0.261,0.474,0.417,0.390,0.211,0.183,south-southwest,12.7,Yes
2016/05/04,01:50,0.447,0.261,0.469,0.416,0.393,0.212,0.185,south,12.9,Yes
2016/05/04,02:00,0.452,0.262,0.475,0.417,0.391,0.211,0.184,south-southwest,13.5,Yes
2016/05/04,02:10,0.448,0.260,0.470,0.416,0.393,0.211,0.183,south-southwest,14.0,Yes
2016/05/04,02:20,0.449,0.262,0.475,0.418,0.391,0.212,0.184,south-southwest,13.1,No
2016/05/04,02:30,0.447,0.262,0.470,0.416,0.394,0.211,0.184,south-southwest,15.1,No
2016/05/04,02:40,0.450,0.261,0.474,0.417,0.391,0.213,0.184,south-southwest,13.9,Yes
2016/05/04,02:50,0.450,0.260,0.473,0.415,0.392,0.211,0.183,south-southwest,15.5,Yes
2016/05/04,03:00,0.449,0.260,0.470,0.418,0.391,0.212,0.184,south-southwest,14.4,Yes
2016/05/04,03:10,0.450,0.262,0.475,0.414,0.390,0.210,0.183,south-southwest,14.0,Yes
2016/05/04,03:20,0.448,0.260,0.469,0.419,0.393,0.210,0.184,south-southwest,11.3,No
2016/05/04,03:30,0.449,0.261,0.474,0.416,0.389,0.211,0.184,south-southwest,12.9,No
2016/05/04,03:40,0.447,0.260,0.470,0.416,0.391,0.211,0.184,south,13.1,No
2016/05/04,03:50,0.450,0.262,0.473,0.417,0.388,0.212,0.184,south-southwest,14.9,No
2016/05/04,04:00,0.447,0.259,0.471,0.415,0.393,0.210,0.183,south,12.9,No
2016/05/04,04:10,0.452,0.261,0.472,0.418,0.388,0.211,0.183,south,12.1,Yes
2016/05/04,04:20,0.446,0.259,0.473,0.413,0.393,0.211,0.184,south,14.6,Yes
2016/05/04,04:30,0.451,0.262,0.470,0.418,0.390,0.212,0.185,south-southwest,12.4,Yes
2016/05/04,04:40,0.449,0.261,0.474,0.413,0.393,0.211,0.184,south-southwest,13.7,No
2016/05/04,04:50,0.448,0.261,0.469,0.417,0.391,0.211,0.184,south-southwest,12.9,No
2016/05/04,05:00,0.448,0.261,0.474,0.414,0.393,0.211,0.183,south,17.1,No
2016/05/04,05:10,0.445,0.259,0.471,0.416,0.393,0.210,0.183,south,18.6,Yes
2016/05/04,05:20,0.449,0.260,0.473,0.416,0.388,0.210,0.183,south,14.8,Yes
2016/05/04,05:30,0.445,0.260,0.470,0.415,0.394,0.211,0.185,south,17.4,Yes
2016/05/04,05:40,0.451,0.262,0.472,0.416,0.389,0.212,0.184,south,15.0,Yes
2016/05/04,05:50,0.447,0.262,0.472,0.417,0.392,0.212,0.185,south,16.7,Yes
2016/05/04,06:00,0.451,0.262,0.472,0.416,0.390,0.211,0.184,south,18.5,Yes
2016/05/04,06:10,0.444,0.260,0.470,0.415,0.392,0.210,0.183,south,19.4,Yes
2016/05/04,06:20,0.446,0.261,0.469,0.413,0.387,0.211,0.182,south,17.7,Yes
2016/05/04,06:30,0.443,0.259,0.467,0.414,0.390,0.211,0.183,south,18.2,Yes
2016/05/04,06:40,0.447,0.258,0.468,0.410,0.387,0.211,0.182,south,18.5,Yes
2016/05/04,06:50,0.443,0.259,0.465,0.411,0.391,0.210,0.183,south,17.2,Yes
2016/05/04,07:00,0.444,0.259,0.464,0.409,0.388,0.211,0.183,south,18.8,Yes
2016/05/04,07:10,0.441,0.260,0.463,0.412,0.388,0.211,0.182,south-southwest,19.9,Yes
2016/05/04,07:20,0.443,0.259,0.464,0.406,0.388,0.211,0.183,south,18.8,Yes
2016/05/04,07:30,0.437,0.259,0.458,0.409,0.386,0.210,0.181,south,19.2,Yes
2016/05/04,07:40,0.441,0.258,0.458,0.404,0.386,0.210,0.181,south,18.9,Yes
2016/05/04,07:50,0.438,0.259,0.456,0.406,0.385,0.210,0.182,south,19.3,Yes
2016/05/04,08:00,0.440,0.256,0.455,0.400,0.386,0.210,0.180,south,18.9,Yes
2016/05/04,08:10,0.438,0.260,0.454,0.403,0.384,0.210,0.181,south,18.5,Yes
2016/05/04,08:20,0.436,0.255,0.454,0.400,0.386,0.209,0.180,south,19.3,Yes
2016/05/04,08:30,0.435,0.258,0.450,0.403,0.384,0.209,0.180,south,18.0,Yes
2016/05/04,08:40,0.435,0.255,0.452,0.398,0.386,0.208,0.179,south,17.1,Yes
2016/05/04,08:50,0.432,0.256,0.449,0.400,0.382,0.208,0.178,south-southwest,17.5,Yes
2016/05/04,09:00,0.432,0.254,0.451,0.398,0.386,0.207,0.179,south-southwest,19.6,Yes
2016/05/04,09:10,0.431,0.256,0.448,0.399,0.381,0.208,0.177,south,17.4,Yes
2016/05/04,09:20,0.432,0.254,0.450,0.396,0.384,0.205,0.177,south,17.6,Yes
2016/05/04,09:30,0.430,0.255,0.446,0.397,0.379,0.206,0.177,south,15.0,Yes
2016/05/04,09:40,0.430,0.253,0.446,0.396,0.385,0.206,0.178,south-southwest,14.8,Yes
2016/05/04,09:50,0.426,0.253,0.446,0.396,0.378,0.203,0.176,south-southwest,12.7,Yes
2016/05/04,10:00,0.432,0.250,0.447,0.394,0.384,0.203,0.176,south-southwest,12.4,Yes
2016/05/04,10:10,0.426,0.252,0.446,0.398,0.380,0.203,0.175,south,12.1,Yes
2016/05/04,10:20,0.430,0.250,0.444,0.391,0.383,0.203,0.175,south-southwest,14.6,Yes
2016/05/04,10:30,0.425,0.253,0.445,0.396,0.379,0.203,0.173,south-southwest,15.5,Yes
2016/05/04,10:40,0.429,0.251,0.443,0.392,0.381,0.204,0.175,south-southwest,16.0,Yes
2016/05/04,10:50,0.428,0.253,0.448,0.396,0.381,0.203,0.175,south-southwest,12.0,Yes
2016/05/04,11:00,0.430,0.251,0.444,0.392,0.381,0.204,0.175,south-southwest,14.3,Yes
2016/05/04,11:10,0.429,0.252,0.449,0.396,0.382,0.202,0.174,south-southwest,11.8,Yes
2016/05/04,11:20,0.429,0.252,0.445,0.394,0.380,0.203,0.175,south,9.6,No
2016/05/04,11:30,0.431,0.250,0.449,0.395,0.384,0.202,0.174,south-southwest,11.6,No
2016/05/04,11:40,0.426,0.252,0.447,0.396,0.379,0.202,0.174,south-southwest,9.8,No
2016/05/04,11:50,0.432,0.250,0.445,0.393,0.382,0.202,0.173,south-southwest,6.3,No
2016/05/04,12:00,0.428,0.250,0.450,0.397,0.382,0.201,0.174,south-southwest,8.3,No
2016/05/04,12:10,0.429,0.251,0.445,0.394,0.380,0.203,0.174,south-southwest,7.0,Yes
2016/05/04,12:20,0.433,0.250,0.449,0.398,0.384,0.202,0.174,north-northwest,5.7,Yes
2016/05/04,12:30,0.430,0.253,0.448,0.396,0.380,0.204,0.175,north-northwest,5.3,Yes
2016/05/04,12:40,0.434,0.251,0.450,0.398,0.385,0.204,0.175,north,4.2,Yes
2016/05/04,12:50,0.430,0.254,0.454,0.399,0.382,0.203,0.175,north-northeast,5.3,Yes
2016/05/04,13:00,0.435,0.251,0.449,0.396,0.384,0.205,0.175,north-northeast,7.7,Yes
2016/05/04,13:10,0.431,0.254,0.453,0.401,0.383,0.203,0.175,north-northeast,8.8,No
2016/05/04,13:20,0.434,0.252,0.448,0.397,0.385,0.204,0.174,north-northeast,8.6,No
2016/05/04,13:30,0.431,0.252,0.452,0.401,0.382,0.202,0.175,northeast,8.3,No
2016/05/04,13:40,0.435,0.251,0.448,0.399,0.386,0.205,0.175,north-northeast,10.1,No
2016/05/04,13:50,0.430,0.252,0.453,0.401,0.382,0.204,0.174,north-northeast,9.2,No
2016/05/04,14:00,0.434,0.253,0.448,0.398,0.385,0.204,0.175,northeast,8.1,Yes
2016/05/04,14:10,0.430,0.254,0.456,0.400,0.384,0.204,0.176,north-northeast,7.5,Yes
2016/05/04,14:20,0.434,0.251,0.449,0.397,0.387,0.204,0.176,north-northeast,6.4,No
2016/05/04,14:30,0.431,0.253,0.452,0.402,0.381,0.204,0.176,north-northeast,6.2,No
2016/05/04,14:40,0.436,0.250,0.451,0.397,0.387,0.205,0.175,north,4.9,No
2016/05/04,14:50,0.431,0.254,0.454,0.401,0.381,0.204,0.175,north,4.5,No
2016/05/04,15:00,0.435,0.252,0.451,0.396,0.386,0.205,0.176,north,5.4,No
2016/05/04,15:10,0.432,0.253,0.452,0.400,0.383,0.205,0.175,north,4.6,No
2016/05/04,15:20,0.435,0.252,0.452,0.398,0.384,0.203,0.177,north,3.8,No
2016/05/04,15:30,0.432,0.253,0.451,0.400,0.382,0.204,0.175,north,4.7,No
2016/05/04,15:40,0.435,0.252,0.454,0.399,0.385,0.204,0.175,north,4.7,No
2016/05/04,15:50,0.433,0.253,0.450,0.398,0.384,0.205,0.175,north,4.8,No
2016/05/04,16:00,0.435,0.252,0.454,0.400,0.384,0.205,0.175,north,4.7,No
2016/05/04,16:10,0.433,0.255,0.450,0.398,0.384,0.205,0.174,north,5.1,No
2016/05/04,16:20,0.434,0.253,0.454,0.401,0.384,0.204,0.175,north,5.3,No
2016/05/04,16:30,0.433,0.254,0.450,0.399,0.386,0.205,0.176,north,6.3,No
2016/05/04,16:40,0.436,0.253,0.455,0.403,0.384,0.204,0.176,north,4.7,No
2016/05/04,16:50,0.434,0.253,0.454,0.398,0.385,0.204,0.176,north-northeast,4.7,No
2016/05/04,17:00,0.437,0.253,0.455,0.402,0.384,0.205,0.176,north-northeast,5.0,No
2016/05/04,17:10,0.433,0.253,0.451,0.398,0.385,0.205,0.175,north-northeast,4.1,No
2016/05/04,17:20,0.437,0.252,0.454,0.401,0.383,0.204,0.175,north-northeast,3.8,No
2016/05/04,17:30,0.433,0.254,0.451,0.399,0.383,0.204,0.176,north,4.2,No
2016/05/04,17:40,0.437,0.252,0.456,0.402,0.386,0.204,0.175,north,3.7,No
2016/05/04,17:50,0.433,0.255,0.450,0.398,0.384,0.204,0.177,north-northwest,1.1,No
2016/05/04,18:00,0.436,0.251,0.455,0.403,0.385,0.205,0.175,northeast,0.8,No
2016/05/04,18:10,0.433,0.254,0.451,0.400,0.384,0.204,0.176,north,1.6,No
2016/05/04,18:20,0.435,0.253,0.455,0.400,0.387,0.206,0.176,north,1.6,No
2016/05/04,18:30,0.434,0.255,0.453,0.400,0.383,0.204,0.175,north-northwest,1.4,No
2016/05/04,18:40,0.435,0.253,0.455,0.401,0.385,0.206,0.176,west-northwest,1.4,No
2016/05/04,18:50,0.435,0.254,0.451,0.400,0.382,0.204,0.176,west-northwest,0.9,No
2016/05/04,19:00,0.437,0.253,0.455,0.401,0.386,0.204,0.176,west,1.2,No
2016/05/04,19:10,0.435,0.252,0.451,0.400,0.382,0.205,0.175,west-southwest,1.4,No
2016/05/04,19:20,0.438,0.252,0.456,0.402,0.387,0.206,0.177,west-southwest,1.4,No
2016/05/04,19:30,0.435,0.253,0.452,0.400,0.383,0.205,0.176,south-southwest,1.4,No
2016/05/04,19:40,0.437,0.255,0.456,0.403,0.387,0.204,0.176,south-southwest,1.3,No
2016/05/04,19:50,0.434,0.251,0.452,0.400,0.382,0.205,0.175,southwest,1.1,No
2016/05/04,20:00,0.437,0.253,0.454,0.400,0.388,0.206,0.176,south,1.6,No
2016/05/04,20:10,0.434,0.251,0.452,0.400,0.381,0.206,0.176,south-southwest,1.9,No
2016/05/04,20:20,0.437,0.255,0.456,0.401,0.387,0.204,0.177,south,2.7,No
2016/05/04,20:30,0.434,0.253,0.450,0.402,0.383,0.206,0.175,south,2.5,No
2016/05/04,20:40,0.437,0.253,0.455,0.400,0.389,0.205,0.177,south-southwest,2.9,No
2016/05/04,20:50,0.434,0.253,0.453,0.401,0.383,0.206,0.176,south-southwest,3.6,No
2016/05/04,21:00,0.437,0.253,0.457,0.400,0.387,0.204,0.177,south-southwest,4.6,No
2016/05/04,21:10,0.434,0.253,0.451,0.402,0.386,0.205,0.177,south-southwest,4.7,No
2016/05/04,21:20,0.437,0.253,0.455,0.400,0.386,0.206,0.178,south-southwest,5.5,Yes
2016/05/04,21:30,0.434,0.255,0.453,0.403,0.384,0.207,0.178,south,6.1,Yes
2016/05/04,21:40,0.438,0.253,0.457,0.400,0.387,0.206,0.177,south,5.9,No
2016/05/04,21:50,0.436,0.254,0.451,0.403,0.386,0.205,0.177,south-southwest,5.0,No
2016/05/04,22:00,0.438,0.254,0.456,0.401,0.386,0.206,0.177,south-southwest,5.5,No
2016/05/04,22:10,0.434,0.255,0.453,0.404,0.387,0.207,0.178,south-southwest,6.6,No
2016/05/04,22:20,0.439,0.254,0.456,0.400,0.384,0.207,0.177,south-southwest,7.3,No
2016/05/04,22:30,0.437,0.254,0.453,0.403,0.388,0.207,0.176,south-southwest,8.7,No
2016/05/04,22:40,0.437,0.254,0.456,0.401,0.384,0.207,0.177,south-southwest,7.5,No
2016/05/04,22:50,0.434,0.252,0.454,0.403,0.387,0.205,0.177,south-southwest,6.3,No
2016/05/04,23:00,0.437,0.255,0.454,0.402,0.383,0.205,0.177,south-southwest,6.2,No
2016/05/04,23:10,0.437,0.253,0.455,0.401,0.386,0.205,0.176,southwest,7.1,No
2016/05/04,23:20,0.438,0.254,0.454,0.404,0.382,0.206,0.177,south-southwest,8.2,Yes
2016/05/04,23:30,0.437,0.254,0.456,0.401,0.384,0.205,0.177,south-southwest,7.9,No
2016/05/04,23:40,0.435,0.253,0.454,0.403,0.385,0.205,0.177,southwest,8.3,No
2016/05/04,23:50,0.437,0.254,0.458,0.400,0.382,0.206,0.176,south-southwest,9.0,No
